Location: Broekland
(52.3610°N, 6.2005°E)
Time: 21:28:54
(UTC+00:00)

BlueWalker 3 - Visible Passes

Search period start: 16 January 2026 00:00
Search period end: 26 January 2026 00:00
Orbit: 451 x 463 km, 53.2° (Epoch: 16 January)

Date Brightness Start Highest point End Pass type
(mag) Time Alt. Az. Time Alt. Az. Time Alt. Az.
21 Jan 4.3 18:59:04 10° SW 18:59:50 15° SSW 18:59:50 15° SSW visible
22 Jan 3.2 18:23:53 10° SSW 18:26:10 27° S 18:26:10 27° S visible
23 Jan 3.0 17:48:46 10° SSW 17:51:48 27° SE 17:52:26 25° SE visible
23 Jan 4.6 19:25:25 10° WSW 19:26:11 16° WSW 19:26:11 16° WSW visible
24 Jan 3.3 17:13:41 10° SSW 17:16:31 22° SE 17:18:37 14° E visible
24 Jan 3.1 18:50:03 10° WSW 18:52:22 37° WSW 18:52:22 37° WSW visible
25 Jan 1.7 18:14:42 10° WSW 18:18:15 65° SSE 18:18:30 62° SE visible
25 Jan 5.2 19:52:12 10° W 19:52:15 10° W 19:52:15 10° W visible
